When you browse on this site, cookies collect data to enhance your experience and personalize the content and advertising you see.
Visit our Privacy Policy to learn more. By continuing to use the site, you agree to this use of cookies and data.
  • In Portugal
  • List of Countries
  • For 7 days
  • Water Temperature
  • Weather Map
  • Weather Widgets
  • user-avatar
    Login

    Hourly Weather Iche

    Today, 23 September, Monday

    Time Temperature Precipitation Wind Pressure Humidity
    00:00 -1°C° 0 mm 3 mps 577 mmHg 59%
    01:00 -1°C° 0 mm 2 mps 577 mmHg 59%
    02:00 -1°C° 0 mm 2 mps 577 mmHg 58%
    03:00 -1°C° 0 mm 2 mps 577 mmHg 57%
    04:00 -1°C° 0 mm 2 mps 577 mmHg 56%
    05:00 -1°C° 0 mm 2 mps 577 mmHg 55%
    06:00 +2°C° 0 mm 1 mps 577 mmHg 54%
    07:00 +4°C° 0 mm 1 mps 578 mmHg 52%
    08:00 +6°C° 0 mm 1 mps 579 mmHg 50%
    09:00 +8°C° 0 mm 1 mps 581 mmHg 46%
    10:00 +8°C° 0 mm 2 mps 581 mmHg 46%
    11:00 +9°C° 0 mm 2 mps 581 mmHg 46%
    12:00 +10°C° 0 mm 3 mps 581 mmHg 46%
    13:00 +10°C° 0 mm 2 mps 580 mmHg 47%
    14:00 +10°C° 0 mm 2 mps 580 mmHg 48%
    15:00 +9°C° 0 mm 2 mps 580 mmHg 49%
    16:00 +7°C° 0 mm 2 mps 579 mmHg 59%
    17:00 +6°C° 0 mm 1 mps 577 mmHg 68%
    18:00 +4°C° 0 mm 1 mps 576 mmHg 78%
    19:00 +3°C° 0 mm 1 mps 577 mmHg 73%
    20:00 +3°C° 0 mm 1 mps 577 mmHg 69%
    21:00 +3°C° 0 mm 1 mps 577 mmHg 64%
    22:00 +3°C° 0 mm 1 mps 577 mmHg 63%
    23:00 +3°C° 0 mm 1 mps 577 mmHg 63%

    Tomorrow, 24 September, Tuesday

    Time Temperature Precipitation Wind Pressure Humidity
    00:00 +3°C° 0 mm 1 mps 577 mmHg 62%
    01:00 +3°C° 0 mm 1 mps 577 mmHg 61%
    02:00 +3°C° 0 mm 1 mps 577 mmHg 60%
    03:00 +2°C° 0 mm 2 mps 577 mmHg 60%
    04:00 +2°C° 0 mm 2 mps 577 mmHg 60%
    05:00 +2°C° 0 mm 2 mps 577 mmHg 61%
    06:00 +2°C° 0 mm 2 mps 577 mmHg 62%
    07:00 +4°C° 0 mm 2 mps 578 mmHg 58%
    08:00 +7°C° 0 mm 2 mps 580 mmHg 54%
    09:00 +9°C° 0 mm 2 mps 581 mmHg 51%
    10:00 +10°C° 0 mm 2 mps 581 mmHg 50%
    11:00 +12°C° 0 mm 2 mps 581 mmHg 49%
    12:00 +11°C° 0 mm 3 mps 581 mmHg 48%
    13:00 +11°C° 0 mm 3 mps 581 mmHg 49%
    14:00 +11°C° 0 mm 3 mps 580 mmHg 50%
    15:00 +12°C° 0 mm 2 mps 580 mmHg 51%
    16:00 +9°C° 0 mm 2 mps 579 mmHg 60%
    17:00 +8°C° 0 mm 1 mps 578 mmHg 69%
    18:00 +6°C° 0 mm 1 mps 577 mmHg 78%
    19:00 +6°C° 0 mm 1 mps 577 mmHg 72%
    20:00 +6°C° 0 mm 1 mps 577 mmHg 66%
    21:00 +6°C° 0 mm 1 mps 577 mmHg 60%
    22:00 +5°C° 0 mm 1 mps 577 mmHg 61%
    23:00 +4°C° 0 mm 2 mps 577 mmHg 61%

    Day after tomorrow, 25 September, Wednesday

    Time Temperature Precipitation Wind Pressure Humidity
    00:00 +4°C° 0 mm 2 mps 576 mmHg 61%
    01:00 +4°C° 0 mm 2 mps 576 mmHg 61%
    02:00 +4°C° 0 mm 2 mps 576 mmHg 62%
    03:00 +4°C° 0 mm 2 mps 576 mmHg 62%
    04:00 +4°C° 0 mm 2 mps 576 mmHg 61%
    05:00 +4°C° 0 mm 2 mps 576 mmHg 59%
    06:00 +4°C° 0 mm 2 mps 576 mmHg 58%
    07:00 +7°C° 0 mm 2 mps 578 mmHg 53%
    08:00 +9°C° 0 mm 2 mps 579 mmHg 48%
    09:00 +13°C° 0 mm 2 mps 581 mmHg 42%
    10:00 +13°C° 0 mm 2 mps 581 mmHg 44%
    11:00 +13°C° 0 mm 3 mps 581 mmHg 46%
    12:00 +13°C° 0 mm 3 mps 581 mmHg 47%
    13:00 +13°C° 0 mm 3 mps 581 mmHg 49%
    14:00 +13°C° 0 mm 3 mps 581 mmHg 51%
    15:00 +12°C° 0 mm 3 mps 580 mmHg 53%
    16:00 +10°C° 0 mm 2 mps 579 mmHg 60%
    17:00 +9°C° 0 mm 2 mps 579 mmHg 68%
    18:00 +8°C° 0 mm 1 mps 578 mmHg 76%
    19:00 +7°C° 0 mm 1 mps 578 mmHg 75%
    20:00 +7°C° 0 mm 1 mps 578 mmHg 73%
    21:00 +7°C° 0 mm 1 mps 578 mmHg 72%
    22:00 +7°C° 0 mm 1 mps 578 mmHg 69%
    23:00 +7°C° 0 mm 1 mps 578 mmHg 66%

    26 September, Thursday

    Time Temperature Precipitation Wind Pressure Humidity
    00:00 +7°C° 0 mm 1 mps 578 mmHg 62%
    01:00 +7°C° 0 mm 1 mps 578 mmHg 62%
    02:00 +7°C° 0 mm 1 mps 578 mmHg 62%
    03:00 +7°C° 0 mm 1 mps 578 mmHg 62%
    04:00 +6°C° 0 mm 2 mps 578 mmHg 63%
    05:00 +5°C° 0 mm 2 mps 578 mmHg 63%
    06:00 +5°C° 0 mm 2 mps 578 mmHg 64%
    07:00 +8°C° 0 mm 2 mps 579 mmHg 59%
    08:00 +10°C° 0 mm 2 mps 580 mmHg 53%
    09:00 +14°C° 0 mm 2 mps 582 mmHg 48%
    10:00 +13°C° 0 mm 3 mps 582 mmHg 46%
    11:00 +14°C° 0 mm 3 mps 582 mmHg 44%
    12:00 +16°C° 0 mm 3 mps 582 mmHg 42%
    13:00 +16°C° 0 mm 3 mps 582 mmHg 41%
    14:00 +16°C° 0 mm 3 mps 581 mmHg 41%
    15:00 +16°C° 0 mm 3 mps 581 mmHg 41%
    16:00 +14°C° 0 mm 2 mps 580 mmHg 49%
    17:00 +10°C° 0 mm 2 mps 579 mmHg 58%
    18:00 +9°C° 0 mm 1 mps 578 mmHg 66%
    19:00 +9°C° 0 mm 1 mps 578 mmHg 67%
    20:00 +8°C° 0 mm 1 mps 578 mmHg 68%
    21:00 +8°C° 0 mm 1 mps 578 mmHg 69%
    22:00 +8°C° 0 mm 1 mps 578 mmHg 71%
    23:00 +8°C° 0 mm 1 mps 578 mmHg 73%

    27 September, Friday

    Time Temperature Precipitation Wind Pressure Humidity
    00:00 +7°C° 0 mm 1 mps 578 mmHg 75%
    01:00 +7°C° 0 mm 1 mps 578 mmHg 75%
    02:00 +6°C° 0 mm 2 mps 577 mmHg 75%
    03:00 +6°C° 0 mm 2 mps 577 mmHg 74%
    04:00 +6°C° 0 mm 2 mps 577 mmHg 73%
    05:00 +6°C° 0 mm 2 mps 577 mmHg 73%
    06:00 +6°C° 0 mm 2 mps 577 mmHg 72%
    07:00 +8°C° 0 mm 2 mps 579 mmHg 66%
    08:00 +10°C° 0 mm 2 mps 580 mmHg 61%
    09:00 +14°C° 0 mm 2 mps 581 mmHg 55%
    10:00 +14°C° 0 mm 2 mps 581 mmHg 53%
    11:00 +14°C° 0 mm 3 mps 581 mmHg 51%
    12:00 +16°C° 0 mm 3 mps 582 mmHg 49%
    13:00 +16°C° 0 mm 3 mps 581 mmHg 50%
    14:00 +14°C° 0 mm 3 mps 581 mmHg 50%
    15:00 +14°C° 0 mm 3 mps 580 mmHg 51%
    16:00 +13°C° 0 mm 2 mps 579 mmHg 59%
    17:00 +10°C° 0 mm 2 mps 578 mmHg 67%
    18:00 +10°C° 0 mm 1 mps 578 mmHg 74%
    19:00 +9°C° 0 mm 1 mps 578 mmHg 73%
    20:00 +9°C° 0 mm 1 mps 578 mmHg 71%
    21:00 +9°C° 0 mm 1 mps 578 mmHg 70%
    22:00 +9°C° 0 mm 1 mps 578 mmHg 72%
    23:00 +9°C° 0 mm 1 mps 578 mmHg 74%

    28 September, Saturday

    Time Temperature Precipitation Wind Pressure Humidity
    00:00 +8°C° 0 mm 2 mps 577 mmHg 76%
    01:00 +7°C° 0 mm 2 mps 577 mmHg 77%
    02:00 +7°C° 0 mm 2 mps 577 mmHg 77%
    03:00 +7°C° 0 mm 2 mps 576 mmHg 77%
    04:00 +7°C° 0 mm 2 mps 576 mmHg 77%
    05:00 +7°C° 0 mm 2 mps 576 mmHg 77%
    06:00 +7°C° 0 mm 1 mps 576 mmHg 76%
    07:00 +9°C° 0 mm 2 mps 577 mmHg 69%
    08:00 +12°C° 0 mm 2 mps 578 mmHg 61%
    09:00 +13°C° 0 mm 3 mps 579 mmHg 53%
    10:00 +13°C° 0 mm 3 mps 579 mmHg 54%
    11:00 +13°C° 0 mm 3 mps 579 mmHg 55%
    12:00 +13°C° 0 mm 3 mps 579 mmHg 56%
    13:00 +12°C° 0.2 mm 3 mps 579 mmHg 64%
    14:00 +10°C° 0.2 mm 3 mps 578 mmHg 72%
    15:00 +9°C° 0.2 mm 2 mps 577 mmHg 80%
    16:00 +8°C° 0.1 mm 2 mps 577 mmHg 83%
    17:00 +8°C° 0.1 mm 1 mps 577 mmHg 85%
    18:00 +7°C° 0.1 mm 1 mps 577 mmHg 88%
    19:00 +7°C° 0 mm 1 mps 577 mmHg 89%
    20:00 +6°C° 0 mm 1 mps 577 mmHg 89%
    21:00 +6°C° 0 mm 1 mps 578 mmHg 90%
    22:00 +6°C° 0 mm 1 mps 578 mmHg 90%
    23:00 +5°C° 0 mm 1 mps 578 mmHg 91%
    Show more